Terminal Aerodrome Forecast
Issued by NWS Melbourne, FL

Current Version | Previous Version | Text Only | Print | Product List | Glossary On
Versions: 1 2 3 4 5 6 7 8 9 10 11 12 13 14 15 16 17 18 19 20 21 22 23 24
000
FTUS42 KMLB 050909 AAA
TAFDAB
TAF AMD
KDAB 050909Z 0509/0606 20003KT P6SM SKC
     FM051000 VRB03KT 3SM BR SCT010 BKN025
     FM051400 21007KT P6SM SCT025 BKN035
     FM060400 30005KT P6SM BKN035 OVC060=

USA.gov is the U.S. government's official web portal to all federal, state and local government web resources and services.